Location: Springfield
(37.2150°N, 93.2980°W)
Time: 03:50:54
(UTC-05:00)

Daily predictions for brighter satellites

Satellite Brightness Start Highest point End
(mag) Time Altitude Azimuth Time Altitude Azimuth Time Altitude Azimuth
Cosmos 2369 Rocket 3.9 00:04:26 10° NNW 00:07:06 29° NNW 00:07:06 29° NNW
CZ-4C R/B 4.3 00:29:46 21° NW 00:29:46 21° NW 00:34:12 10° N
USA 234 4.2 00:32:58 42° NNW 00:32:58 42° NNW 00:37:08 10° NW
ATLAS 5 CENTAUR R/B 4.1 00:33:04 10° NW 00:35:41 28° NW 00:35:41 28° NW
Cosmos 2082 Rocket 4.3 02:06:40 20° NE 02:06:40 20° NE 02:08:42 10° NE
Resurs 1-4 Rocket 4.2 02:21:14 10° NE 02:23:33 20° ENE 02:23:33 20° ENE
Cosmos 1833 Rocket 4.0 02:41:36 36° NNE 02:41:36 36° NNE 02:44:51 10° NNE
ATLAS CENTAUR R/B 4.4 02:41:20 70° SSW 02:43:11 84° SE 03:10:25 10° NE
Lacrosse 4 Rocket 4.4 02:40:36 10° N 02:41:22 14° N 02:41:22 14° N
Lacrosse 5 rocket 3.9 03:11:25 20° NNE 03:11:25 20° NNE 03:12:51 10° NNE
ARIANE 5 R/B 3.6 03:09:37 10° NNE 03:13:42 41° ENE 03:13:42 41° ENE
Cosmos 1092 Rocket 4.3 03:17:09 10° N 03:22:10 59° NNW 03:22:10 59° NNW
CZ-2D R/B 2.7 03:24:31 10° N 03:28:40 54° N 03:28:40 54° N
SL-16 R/B 2.7 03:36:53 61° NW 03:36:53 61° NW 03:42:11 10° NNW
Cosmos 1980 Rocket 2.3 03:34:12 10° NNW 03:39:48 73° ENE 03:39:51 73° ENE
IRS-1D 4.0 03:35:49 10° N 03:40:00 57° N 03:40:00 57° N
Cosmos 1697 Rocket 3.9 03:36:35 10° NNW 03:39:27 30° NW 03:39:27 30° NW
Cosmos 2082 Rocket 3.4 03:48:31 30° NW 03:48:31 30° NW 03:52:45 10° N
Cosmos 841 Rocket 4.4 03:48:23 37° ESE 03:49:06 39° ESE 03:53:54 10° NE
ADEOS II 3.5 03:45:43 10° NNE 03:50:26 33° E 03:52:21 25° SE
Cosmos 1627 Rocket 4.4 03:45:06 10° NNW 03:51:17 68° W 03:51:17 68° W
SL-16 R/B 4.0 03:47:43 10° N 03:52:41 30° ENE 03:57:38 10° ESE
ADEOS 3.8 03:47:37 10° NNE 03:52:46 59° ESE 03:53:17 56° SE
UNKNOWN OBJECT B 4.1 03:51:11 10° NNE 03:53:49 38° NE 03:53:49 38° NE
Cosmos 2058 Rocket 4.0 03:53:13 10° N 03:57:30 46° E 03:58:13 42° ESE
Cosmos 2228 3.5 03:57:16 10° N 04:01:27 55° E 04:01:27 55° E
Cosmos 1606 Rocket 4.4 04:00:04 10° N 04:02:57 41° NNW 04:02:57 41° NNW
Resurs 1-4 Rocket 3.0 04:00:38 10° N 04:04:38 34° NW 04:04:38 34° NW
ATLAS 3B R/B 2.9 04:03:31 44° S 04:05:51 67° ESE 04:12:46 10° NE
Meteor 1-22 Rocket 4.2 04:00:43 10° N 04:06:41 85° E 04:08:33 45° SSE
Cosmos 2322 Rocket 3.5 04:03:03 10° N 04:08:18 38° ENE 04:13:29 10° SE
NOSS 3-2 (A) 4.1 04:10:13 33° SSE 04:12:17 46° ESE 04:18:15 10° NE
Cosmos 2180 Rocket 4.4 04:11:31 54° SSW 04:12:59 75° W 04:19:25 10° N
Cosmos 292 Rocket 4.4 04:13:39 41° SSE 04:14:49 52° ESE 04:19:30 10° NNE
Cosmos 1892 Rocket 3.8 04:15:29 57° NW 04:15:29 57° NW 04:19:14 10° N
Cosmos 1763 Rocket 3.3 04:14:42 70° SW 04:15:14 79° WNW 04:20:34 10° NNE
SJ 16-02 4.2 04:13:00 10° NNE 04:16:05 18° ENE 04:19:09 10° ESE
Cosmos 1842 3.5 04:16:46 67° NNE 04:16:46 67° NNE 04:20:15 10° N
deb Kosmos-1763 4.4 04:22:46 65° NNE 04:22:46 65° NNE 04:26:01 10° NNE
Cosmos 2279 Rocket 4.2 04:21:31 47° WSW 04:22:25 50° W 04:28:30 10° N
Transit 2A Rocket 4.5 04:24:31 10° NNW 04:29:00 83° ENE 04:33:16 10° SSE
USA 215 3.3 04:23:23 10° NE 04:29:56 71° SE 04:32:57 34° SSW
H-II Stage 2 3.9 04:30:23 25° S 04:31:55 30° SE 04:43:50 10° E
Cosmos 1898 Rocket 3.6 04:27:30 10° NNW 04:32:31 49° WSW 04:32:39 49° WSW
Cosmos 1805 3.1 04:30:36 10° N 04:34:26 74° W 04:34:26 74° W
Cosmos 1953 3.7 04:31:34 10° N 04:35:26 39° E 04:39:14 10° SSE
SEDSat Delta rocket 4.2 04:33:53 41° SW 04:35:38 52° S 04:42:11 10° ESE
Cosmos 44 3.6 04:31:45 10° NNW 04:37:02 77° ENE 04:42:25 10° SE
Cosmos 1937 Rocket 3.5 04:37:41 10° NNW 04:42:45 56° WSW 04:45:29 26° S
PSLV R/B 3.5 04:49:54 45° SE 04:49:54 45° SE 04:52:36 10° E
Centaur D-1A AC-35 4.2 04:47:52 27° SW 04:51:09 43° SSE 05:19:13 10° ESE
ARIANE 5 R/B 4.0 04:49:34 10° NNW 04:53:22 21° WNW 04:54:02 20° WNW
Timation 2 Rocket 4.3 04:52:40 30° WSW 04:55:04 44° WNW 05:00:47 10° N
ERBS 3.5 04:55:23 26° S 04:56:36 35° SE 04:59:43 10° ENE
Okean O Rocket 3.6 04:54:03 10° NE 04:57:45 27° E 05:01:25 10° SSE
Cosmos 990 Rocket 4.3 04:53:00 10° NNW 04:57:47 40° WSW 05:00:30 23° SSW
Cosmos 1758 3.2 04:57:41 10° NNW 05:01:37 66° W 05:04:39 16° S
Cosmos 44 Rocket 3.4 05:00:55 10° NNW 05:06:05 88° WSW 05:11:17 10° SSE
Cosmos 836 Rocket 4.4 05:03:46 18° SSW 05:07:39 85° WNW 05:12:52 10° NNE
USA 238 DEB 4.2 05:05:07 23° WSW 05:09:03 44° NW 05:15:40 10° NNE
USA 238 4.2 05:05:12 23° WSW 05:09:08 44° NW 05:15:46 10° NNE
Cosmos 2266 Rocket 4.1 05:03:25 10° NNW 05:09:18 53° W 05:15:15 10° SSW
Cosmos 372 Rocket 4.5 05:04:10 10° NNW 05:09:21 63° ENE 05:14:28 10° SSE
Cosmos 1733 3.2 05:07:00 10° NNW 05:10:50 62° W 05:14:38 10° S
Cosmos 2150 Rocket 4.4 05:06:38 10° NNW 05:11:47 43° WSW 05:16:52 10° S
DNEPR-1 R/B 3.8 05:11:12 27° WSW 05:13:10 49° NW 05:17:33 10° NNE
PSLV R/B 3.5 05:16:25 10° N 05:20:35 61° WNW 05:24:11 13° SSW
Cosmos 2360 Rocket 2.6 05:15:43 10° NNW 05:21:20 66° ENE 05:26:54 10° SSE
Cosmos 1980 Rocket 4.0 05:20:38 10° WNW 05:21:31 12° W 05:21:31 12° W
ADEOS II 3.1 05:25:36 10° N 05:30:00 28° WNW 05:33:18 15° WSW
Cosmos 1812 Rocket 3.7 05:26:37 10° NNW 05:30:58 52° W 05:35:16 10° S
CZ-4B R/B 2.9 05:27:39 10° N 05:31:49 63° WNW 05:35:43 10° SSW
BREEZE-M DEB (TANK) 2.9 05:23:17 10° NW 05:32:28 60° SW 05:35:29 10° SSE
SL-16 R/B 2.8 05:31:41 10° NW 05:36:45 34° WSW 05:41:48 10° SSW
Cosmos 1470 3.3 05:33:09 10° NNW 05:36:51 38° W 05:40:32 10° SSW
Cosmos 1758 Rocket 3.5 05:35:22 10° S 05:39:41 89° E 05:44:03 10° N
COSMOS 2428 4.3 05:35:18 10° N 05:40:37 39° ENE 05:45:53 10° SE
USA 161 1.9 05:37:50 10° SSE 05:40:51 68° ENE 05:43:49 10° N
Cosmos 1238 Rocket 4.1 05:35:02 10° SSW 05:41:25 70° W 05:48:09 10° N
NOSS 3-2 (C) 3.8 05:40:41 12° SW 05:46:06 52° NW 05:52:26 10° NNE
ATLAS 5 CENTAUR R/B 4.0 05:38:30 11° WSW 05:46:35 20° SSW 05:50:40 10° SSE
Cosmos 540 Rocket 4.5 05:42:44 12° WSW 05:46:40 28° WNW 05:51:05 10° N
Cosmos 2219 Rocket 4.3 05:43:23 10° N 05:48:19 31° ENE 05:53:13 10° ESE
Cosmos 1707 3.8 05:48:37 10° SW 05:51:53 26° WNW 05:55:14 10° NNW
Cosmos 2322 Rocket 3.1 05:47:29 10° NW 05:52:05 26° WSW 05:56:39 10° SSW
Meteor 1-16 Rocket 4.1 05:48:26 10° NNW 05:54:04 73° W 05:59:28 10° S
SJ 16-02 1.9 05:50:45 10° NW 05:54:46 35° W 05:58:47 10° SSW
ATLAS 3B R/B 3.9 05:51:07 10° W 05:57:02 27° NW 06:02:47 10° NNE
ATLAS CENTAUR R/B 1.7 05:56:00 10° NNW 06:00:29 90° WSW 06:05:14 10° SSE
